This demonstration page uses our WeatherBlox Daily Observations layout. Learn more.

Left ArrowRight Arrow

39.92423, -83.80882

Hourly Observations for November 30, 2015

Temp ( °F °C ) Dew Point ( °F °C ) Humidity (%) Winds ( mph kmh ) Pressure ( in mb ) Visibility ( mi km ) Precip ( " mm )
12:56 am 00:56 Clear 34 1.1 32 0 92 92 ENE 9 15 30.24 1024 10 16.0934 0 0
1:56 am 01:56 Clear 34 1.1 32 0 92 92 ENE 12 19 30.22 1024 10 16.0934 0 0
2:56 am 02:56 Clear 33 0.5 32 0 96 96 NE 7 11 30.22 1024 10 16.0934 0 0
3:56 am 03:56 Clear 34 1.1 32 0 92 92 ENE 8 13 30.21 1023 10 16.0934 0 0
4:56 am 04:56 Clear 34 1.1 32 0 92 92 NE 12 19 30.2 1023 10 16.0934 0 0
5:56 am 05:56 Clear 34 1.1 31 -0.5 89 89 ENE 10 17 30.18 1022 10 16.0934 0 0
6:56 am 06:56 Clear 34 1.1 31 -0.5 89 89 ENE 12 19 30.17 1022 10 16.0934 0 0
7:56 am 07:56 Sunny 34 1.1 31 -0.5 89 89 ENE 14 22 30.17 1022 10 16.0934 0 0
8:26 am 08:26 Partly Cloudy 34 1 30 -1 87 87 ENE 13 20 30.21 1023 10 16.0934 0 0
8:47 am 08:47 Mostly Cloudy 36 2 32 0 87 87 ENE 12 19 30.21 1023 10 16.0934 0 0
8:56 am 08:56 Cloudy 36 2.2 33 0.5 89 89 ENE 13 20 30.19 1022 10 16.0934 0 0
9:56 am 09:56 Cloudy 38 3.3 34 1.1 86 86 ENE 13 20 30.19 1022 10 16.0934 0 0
10:31 am 10:31 Partly Cloudy 37 3 34 1 87 87 E 13 20 30.21 1023 10 16.0934 0 0
10:56 am 10:56 Partly Cloudy 40 4.4 35 1.6 82 82 E 12 19 30.18 1022 10 16.0934 0 0
11:56 am 11:56 Mostly Sunny 42 5.5 37 2.7 82 82 ENE 10 17 30.16 1021 10 16.0934 0 0
12:56 pm 12:56 Sunny 46 7.7 39 3.8 77 77 NE 10 17 30.11 1020 10 16.0934 0 0
1:20 pm 13:20 Mostly Cloudy 46 8 39 4 76 76 ENE 10 17 30.12 1020 10 16.0934 0 0
1:56 pm 13:56 Cloudy 47 8.3 42 5.5 83 83 E 10 17 30.09 1019 10 16.0934 0 0
2:56 pm 14:56 Cloudy 47 8.3 41 5 80 80 E 10 17 30.07 1018 10 16.0934 0 0
3:56 pm 15:56 Cloudy 45 7.2 40 4.4 83 83 ENE 13 20 30.06 1018 10 16.0934 0 0
4:56 pm 16:56 Cloudy 45 7.2 42 5.5 89 89 E 14 22 30.06 1018 10 16.0934 0 0
5:17 pm 17:17 Cloudy 45 7 43 6 93 93 E 12 19 30.09 1019 10 16.0934 0 0
5:56 pm 17:56 Cloudy 44 6.6 42 5.5 93 93 E 9 15 30.08 1019 10 16.0934 0 0
6:34 pm 18:34 Cloudy with Mist and Fog 43 6 43 6 100 100 E 10 17 30.09 1019 5 8.0467 0 0
6:56 pm 18:56 Cloudy with Mist and Fog 43 6.1 42 5.5 96 96 E 8 13 30.07 1018 3 4.82802 0 0
7:21 pm 19:21 Cloudy with Mist and Fog 43 6 43 6 100 100 E 9 15 30.09 1019 2.5 4.02335 0 0
7:44 pm 19:44 Cloudy with Mist and Fog 43 6 43 6 100 100 E 8 13 30.09 1019 1.5 2.41401 0 0
7:56 pm 19:56 Cloudy with Mist and Fog 43 6.1 42 5.5 96 96 E 9 15 30.06 1018 1.5 2.41401 0 0
8:16 pm 20:16 Cloudy with Mist and Fog 43 6 43 6 100 100 E 9 15 30.09 1019 2.5 4.02335 0 0
8:56 pm 20:56 Cloudy with Mist and Fog 42 5.5 42 5.5 100 100 E 8 13 30.05 1018 2.5 4.02335 0 0
9:56 pm 21:56 Cloudy with Mist and Fog 43 6.1 43 6.1 100 100 E 8 13 30.03 1017 2.5 4.02335 0 0
10:26 pm 22:26 Cloudy with Mist and Fog 43 6 43 6 100 100 E 8 13 30.03 1017 1.75 2.816345 0 0
10:33 pm 22:33 Cloudy with Mist and Fog 43 6 43 6 100 100 E 8 13 30.03 1017 2.5 4.02335 0 0
10:43 pm 22:43 Cloudy with Mist and Fog 43 6 43 6 100 100 E 8 13 30.03 1017 3 4.82802 0 0
10:56 pm 22:56 Cloudy with Mist and Fog 43 6.1 43 6.1 100 100 ESE 9 15 30.02 1017 3 4.82802 0 0
11:22 pm 23:22 Cloudy with Mist and Fog 43 6 43 6 100 100 ESE 10 17 30.03 1017 2 3.21868 0 0
11:29 pm 23:29 Cloudy with Mist and Fog 43 6 43 6 100 100 ESE 8 13 30.03 1017 1.25 2.011675 0 0
11:46 pm 23:46 Cloudy with Mist and Fog 43 6 43 6 100 100 E 10 17 30 1016 1 1.60934 0 0
11:56 pm 23:56 Cloudy with Mist and Fog 43 6.1 43 6.1 100 100 ESE 8 13 30 1016 1 1.60934 0 0

Powered by AerisWeather